Hourly Weather Borovec

Today, 8 July, Wednesday

Time Temperature Precipitation Wind Pressure Humidity
00:00 +12°C° 0 mm 2 mps 710 mmHg 90%
01:00 +12°C° 0 mm 2 mps 710 mmHg 90%
02:00 +12°C° 0 mm 2 mps 710 mmHg 91%
03:00 +10°C° 0 mm 2 mps 710 mmHg 91%
04:00 +11°C° 0 mm 1 mps 710 mmHg 91%
05:00 +11°C° 0 mm 1 mps 710 mmHg 91%
06:00 +12°C° 0 mm 1 mps 711 mmHg 85%
07:00 +14°C° 0 mm 2 mps 711 mmHg 79%
08:00 +16°C° 0 mm 3 mps 712 mmHg 73%
09:00 +17°C° 0 mm 3 mps 712 mmHg 67%
10:00 +19°C° 0 mm 2 mps 712 mmHg 62%
11:00 +20°C° 0 mm 2 mps 713 mmHg 57%
12:00 +21°C° 0 mm 2 mps 713 mmHg 55%
13:00 +23°C° 0 mm 2 mps 712 mmHg 53%
14:00 +24°C° 0 mm 2 mps 712 mmHg 52%
15:00 +24°C° 0 mm 2 mps 712 mmHg 53%
16:00 +24°C° 0 mm 2 mps 712 mmHg 55%
17:00 +24°C° 0 mm 2 mps 712 mmHg 57%
18:00 +21°C° 0 mm 2 mps 712 mmHg 66%
19:00 +20°C° 0 mm 1 mps 712 mmHg 75%
20:00 +18°C° 0 mm 1 mps 711 mmHg 84%
21:00 +18°C° 0 mm 1 mps 712 mmHg 85%
22:00 +16°C° 0 mm 1 mps 712 mmHg 86%
23:00 +14°C° 0 mm 0 mps 712 mmHg 87%

Tomorrow, 9 July, Thursday

Time Temperature Precipitation Wind Pressure Humidity
00:00 +14°C° 0 mm 0 mps 713 mmHg 87%
01:00 +13°C° 0 mm 0 mps 713 mmHg 87%
02:00 +13°C° 0 mm 0 mps 713 mmHg 88%
03:00 +13°C° 0 mm 0 mps 713 mmHg 88%
04:00 +13°C° 0 mm 0 mps 713 mmHg 89%
05:00 +12°C° 0 mm 0 mps 713 mmHg 90%
06:00 +14°C° 0 mm 0 mps 713 mmHg 84%
07:00 +16°C° 0 mm 0 mps 713 mmHg 79%
08:00 +18°C° 0 mm 0 mps 714 mmHg 73%
09:00 +20°C° 0 mm 0 mps 714 mmHg 67%
10:00 +24°C° 0 mm 1 mps 714 mmHg 60%
11:00 +26°C° 0 mm 1 mps 714 mmHg 53%
12:00 +26°C° 0 mm 1 mps 714 mmHg 50%
13:00 +27°C° 0 mm 2 mps 714 mmHg 48%
14:00 +28°C° 0 mm 2 mps 714 mmHg 45%
15:00 +27°C° 0 mm 2 mps 713 mmHg 47%
16:00 +27°C° 0 mm 2 mps 713 mmHg 49%
17:00 +27°C° 0 mm 3 mps 713 mmHg 51%
18:00 +25°C° 0 mm 2 mps 713 mmHg 59%
19:00 +21°C° 0 mm 2 mps 712 mmHg 66%
20:00 +20°C° 0 mm 1 mps 712 mmHg 74%
21:00 +20°C° 0 mm 1 mps 713 mmHg 75%
22:00 +19°C° 0 mm 1 mps 713 mmHg 77%
23:00 +18°C° 0 mm 1 mps 713 mmHg 78%

Day after tomorrow, 10 July, Friday

Time Temperature Precipitation Wind Pressure Humidity
00:00 +18°C° 0 mm 1 mps 713 mmHg 79%
01:00 +16°C° 0 mm 1 mps 713 mmHg 80%
02:00 +16°C° 0 mm 1 mps 713 mmHg 80%
03:00 +16°C° 0 mm 1 mps 712 mmHg 82%
04:00 +15°C° 0 mm 1 mps 712 mmHg 84%
05:00 +15°C° 0 mm 1 mps 712 mmHg 85%
06:00 +18°C° 0 mm 1 mps 713 mmHg 80%
07:00 +20°C° 0 mm 1 mps 713 mmHg 74%
08:00 +22°C° 0 mm 1 mps 713 mmHg 68%
09:00 +24°C° 0 mm 2 mps 713 mmHg 63%
10:00 +25°C° 0 mm 2 mps 714 mmHg 57%
11:00 +27°C° 0 mm 3 mps 714 mmHg 52%
12:00 +27°C° 0 mm 3 mps 713 mmHg 51%
13:00 +28°C° 0 mm 3 mps 713 mmHg 50%
14:00 +28°C° 0 mm 3 mps 713 mmHg 49%
15:00 +28°C° 0 mm 3 mps 713 mmHg 51%
16:00 +28°C° 0 mm 3 mps 712 mmHg 53%
17:00 +28°C° 0 mm 3 mps 712 mmHg 55%
18:00 +26°C° 0 mm 3 mps 712 mmHg 62%
19:00 +24°C° 0 mm 2 mps 712 mmHg 68%
20:00 +21°C° 0 mm 2 mps 712 mmHg 75%
21:00 +20°C° 0 mm 2 mps 712 mmHg 76%
22:00 +19°C° 0 mm 2 mps 712 mmHg 78%
23:00 +19°C° 0 mm 2 mps 712 mmHg 79%

11 July, Saturday

Time Temperature Precipitation Wind Pressure Humidity
00:00 +18°C° 0 mm 2 mps 712 mmHg 81%
01:00 +17°C° 0 mm 2 mps 712 mmHg 83%
02:00 +18°C° 0 mm 1 mps 711 mmHg 84%
03:00 +16°C° 0 mm 1 mps 711 mmHg 86%
04:00 +16°C° 0 mm 1 mps 711 mmHg 88%
05:00 +15°C° 0 mm 1 mps 711 mmHg 90%
06:00 +18°C° 0 mm 1 mps 711 mmHg 84%
07:00 +20°C° 0 mm 1 mps 711 mmHg 77%
08:00 +22°C° 0 mm 1 mps 712 mmHg 71%
09:00 +23°C° 0 mm 2 mps 712 mmHg 64%
10:00 +25°C° 0 mm 2 mps 712 mmHg 57%
11:00 +27°C° 0 mm 2 mps 712 mmHg 51%
12:00 +28°C° 0 mm 2 mps 712 mmHg 49%
13:00 +28°C° 0 mm 3 mps 711 mmHg 47%
14:00 +29°C° 0 mm 3 mps 711 mmHg 45%
15:00 +29°C° 0 mm 3 mps 711 mmHg 47%
16:00 +29°C° 0 mm 3 mps 710 mmHg 49%
17:00 +28°C° 0 mm 3 mps 710 mmHg 51%
18:00 +26°C° 0 mm 2 mps 710 mmHg 58%
19:00 +24°C° 0 mm 2 mps 710 mmHg 65%
20:00 +22°C° 0 mm 1 mps 710 mmHg 72%
21:00 +22°C° 0 mm 1 mps 710 mmHg 75%
22:00 +21°C° 0 mm 1 mps 710 mmHg 79%
23:00 +20°C° 0 mm 1 mps 710 mmHg 83%

12 July, Sunday

Time Temperature Precipitation Wind Pressure Humidity
00:00 +20°C° 0 mm 1 mps 710 mmHg 85%
01:00 +19°C° 0 mm 1 mps 710 mmHg 87%
02:00 +19°C° 0 mm 1 mps 710 mmHg 89%
03:00 +18°C° 0 mm 1 mps 710 mmHg 90%
04:00 +18°C° 0 mm 1 mps 710 mmHg 90%
05:00 +18°C° 0 mm 1 mps 710 mmHg 91%
06:00 +20°C° 0 mm 1 mps 711 mmHg 86%
07:00 +20°C° 0 mm 2 mps 711 mmHg 82%
08:00 +23°C° 0 mm 2 mps 712 mmHg 77%
09:00 +24°C° 0 mm 3 mps 712 mmHg 73%
10:00 +25°C° 0 mm 3 mps 712 mmHg 69%
11:00 +26°C° 0 mm 3 mps 712 mmHg 65%
12:00 +26°C° 0.1 mm 4 mps 712 mmHg 65%
13:00 +26°C° 0.1 mm 4 mps 712 mmHg 64%
14:00 +26°C° 0.1 mm 4 mps 712 mmHg 64%
15:00 +26°C° 0.2 mm 4 mps 712 mmHg 67%
16:00 +25°C° 0.2 mm 4 mps 711 mmHg 70%
17:00 +23°C° 0.2 mm 4 mps 711 mmHg 72%
18:00 +22°C° 0.1 mm 3 mps 711 mmHg 77%
19:00 +20°C° 0.1 mm 3 mps 711 mmHg 82%
20:00 +18°C° 0.1 mm 2 mps 711 mmHg 87%
21:00 +18°C° 0 mm 2 mps 711 mmHg 88%
22:00 +17°C° 0 mm 2 mps 712 mmHg 90%
23:00 +16°C° 0 mm 2 mps 712 mmHg 91%

13 July, Monday

Time Temperature Precipitation Wind Pressure Humidity
00:00 +16°C° 0 mm 2 mps 712 mmHg 92%
01:00 +15°C° 0 mm 1 mps 712 mmHg 92%
02:00 +15°C° 0 mm 1 mps 712 mmHg 92%
03:00 +14°C° 0 mm 1 mps 712 mmHg 92%
04:00 +14°C° 0 mm 1 mps 712 mmHg 92%
05:00 +14°C° 0 mm 1 mps 711 mmHg 92%
06:00 +15°C° 0 mm 2 mps 712 mmHg 86%
07:00 +17°C° 0 mm 2 mps 712 mmHg 79%
08:00 +18°C° 0 mm 2 mps 712 mmHg 72%
09:00 +19°C° 0 mm 2 mps 712 mmHg 66%
10:00 +21°C° 0 mm 2 mps 713 mmHg 60%
11:00 +22°C° 0 mm 3 mps 713 mmHg 53%
12:00 +24°C° 0 mm 3 mps 713 mmHg 52%
13:00 +24°C° 0 mm 3 mps 712 mmHg 51%
14:00 +25°C° 0 mm 3 mps 712 mmHg 50%
15:00 +25°C° 0 mm 3 mps 712 mmHg 53%
16:00 +24°C° 0 mm 3 mps 712 mmHg 56%
17:00 +24°C° 0 mm 3 mps 712 mmHg 58%
18:00 +21°C° 0 mm 3 mps 712 mmHg 67%
19:00 +20°C° 0 mm 2 mps 712 mmHg 75%
20:00 +18°C° 0 mm 2 mps 711 mmHg 84%
21:00 +18°C° 0 mm 1 mps 712 mmHg 86%
22:00 +16°C° 0 mm 1 mps 712 mmHg 88%
23:00 +16°C° 0 mm 1 mps 712 mmHg 90%
Show more